Regional Weather Roundup
Issued by NWS Boston, MA

Home | Current Version | Previous Version | Text Only | Print | Product List | Glossary On
Versions: 1 2 3 4 5 6 7 8 9 10 11 12 13 14 15 16 17 18 19 20 21 22 23 24 25 26 27 28 29 30 31 32 33 34 35 36 37 38 39 40 41 42 43 44 45 46 47 48 49 50
000
ASUS41 KBOX 250510
RWRBOX

REGIONAL WEATHER ROUNDUP
NATIONAL WEATHER SERVICE BOSTON/NORTON MA
100 AM EDT SUN AUG 25 2019

NOTE:  "FAIR" INDICATES FEW OR NO CLOUDS BELOW 12,000 FEET WITH NO
SIGNIFICANT WEATHER AND/OR OBSTRUCTIONS TO VISIBILITY.

MAZALL-250600-
EASTERN MASSACHUSETTS

CITY           SKY/WX    TMP DP  RH WIND       PRES   REMARKS
BOSTON         FAIR      65  56  72 N6        30.30S
BEVERLY        FAIR      58  55  90 N5        30.29F
LAWRENCE       FAIR      59  56  89 CALM      30.33R
BEDFORD        FAIR      58  52  80 CALM      30.30R
BLUE HILL        N/A     59  58  96 NE9       30.29S
NORWOOD        FOG       56  52  86 CALM      30.29F VSB 1
MARSHFIELD     FAIR      66  59  77 NE13      30.29S
PLYMOUTH       FAIR      63  57  81 NE7       30.28S
TAUNTON        FAIR      54  51  90 CALM      30.28S
NEW BEDFORD    FAIR      57  54  89 CALM      30.27S
$$

MAZALL-250600-
CAPE COD AND THE ISLANDS

CITY           SKY/WX    TMP DP  RH WIND       PRES   REMARKS
FALMOUTH       CLEAR     63  57  82 NE8       30.27S
HYANNIS        FAIR      64  56  75 NE7       30.25S
CHATHAM        FAIR      66  58  75 NE9       30.26F
PROVINCETOWN   FAIR      63  58  83 NE10      30.28F
NANTUCKET      FAIR      63  58  83 NE13      30.24F
MARTHAS VNYRD  FAIR      66  56  70 NE15G22   30.25F
$$

MAZALL-250600-
CENTRAL AND WESTERN MASSACHUSETTS

CITY           SKY/WX    TMP DP  RH WIND       PRES   REMARKS
WORCESTER      FAIR      58  55  90 N6        30.31S
FITCHBURG      FAIR      58  54  86 NW3       30.32S
ORANGE         FAIR      57  53  86 CALM      30.32F
SPRINGFIELD    FAIR      58  55  89 CALM      30.29S
WESTFIELD      CLOUDY    63  56  78 N3        30.30S
NORTH ADAMS    LGT RAIN  62  58  86 E8        30.31R
PITTSFIELD     CLOUDY    63  54  72 E8        30.30S
$$

RIZALL-250600-
RHODE ISLAND

CITY           SKY/WX    TMP DP  RH WIND       PRES   REMARKS
PROVIDENCE     FAIR      61  57  87 N7        30.29S
NEWPORT        FAIR      62  58  86 NE8       30.27S
BLOCK ISLAND   FAIR     N/A N/A N/A NE9G17    30.27S
SMITHFIELD     FAIR      55  53  93 CALM      30.30S
WESTERLY       FAIR      60  58  92 N3        30.28S
$$

CTZALL-250600-
CONNECTICUT

CITY           SKY/WX    TMP DP  RH WIND       PRES   REMARKS
BRADLEY INTL   MOCLDY    65  54  67 NE3       30.30R
HARTFORD       CLOUDY    65  54  67 E5        30.28S
BRIDGEPORT     FAIR      68  56  65 NE12G22   30.27R
DANBURY        CLOUDY    61  55  81 CALM      30.29S
GROTON         FAIR      62  55  77 N9        30.27S
NEW HAVEN      MOCLDY    65  57  75 NE6       30.28S
CHESTER        FAIR      61  55  82 NE3       30.29S
MERIDEN        CLOUDY    64  54  69 CALM      30.29S
WILLIMANTIC    FAIR      58  56  93 N3        30.32S
OXFORD         CLOUDY    62  56  80 E7        30.30S
$$

MEZ002-015-021-024-NHZ003-005-008-011-012-014-VTZ005-008-250600-
NORTHERN NEW ENGLAND

CITY           SKY/WX    TMP DP  RH WIND       PRES   REMARKS
PORTLAND ME    CLOUDY    63  54  72 E6        30.34R
BANGOR ME      FAIR      52  51  97 CALM      30.35S
CONCORD NH     FAIR      57  55  93 CALM      30.33S
MANCHESTER NH  CLOUDY    61  56  83 N3        30.30F
NASHUA NH      FAIR      57  57 100 NW3       30.32S
PORTSMOUTH NH  MOCLDY    62  57  82 N3        30.30S
JAFFREY NH     FAIR      57  53  86 CALM      30.33F
KEENE NH       FAIR      55  54  96 CALM      30.32S
BURLINGTON VT  FAIR      57  54  89 CALM      30.32S
MT. WASHINGTON FOG       39  39 100 E15G24      N/A  VSB 1/16WCI  31
$$

NYZ052-076-250600-
EASTERN NEW YORK

CITY           SKY/WX    TMP DP  RH WIND       PRES   REMARKS
ALBANY         CLOUDY    64  54  69 N7        30.30S
NEW YORK CITY  MOCLDY    69  55  60 E13       30.25S
$$

ANZALL-250600-
MARINE OBSERVATIONS

STATION/POSITION TIME  TEMP    WIND        PRES    VSBY  WAVE
                       AIR SEA DIR/SP/G                  HT/PER
                 (UTC) (F)     (DEG/KT/KT) (MB)    (MI)  (FT/S)
BOSTON BUOY      0450   66 66              1024.9R         3/ 5
BUZZARDS BAY     0400   66      50/ 19/ 23 1025.2R
NANTUCKET SOUND  0440      74                N/A           2/ 4
MASS BAY-STELLWA 0404   67 66   50/ 12/ 14 1025.7R  1 7/8  2/ 4
ISLE OF SHOALS   0400   66      60/ 13/ 14 1025.7R
S OF BLOCK IS    0500      75                N/A           4/ 5
$$

......................KEY.........................
  SKY/WX - SKY CONDITION/PRESENT WEATHER
  TMP    - TEMPERATURE IN FAHRENHEIT
  DWPT   - DEWPOINT IN FAHRENHEIT
  RH     - RELATIVE HUMIDITY IN PERCENT
  WIND   - DIRECTION AND SPEED IN MPH
  PRES   - MEAN SEA LEVEL PRESSURE IN INCHES OF HG
  WCI    - WIND CHILL INDEX
  VSB    - VISIBILITY IN MILES
  HX     - HEAT INDEX
  TC     - TEMPERATURE IN CELSIUS
  VRB    - VARIABLE WIND DIRECTION
  N/A    - NOT AVAILABLE



USA.gov is the U.S. government's official web portal to all federal, state and local government web resources and services.